Location: Albany
(35.0000°S, 118.0000°E)
Time: 05:28:11
(UTC-04:00)

ERS-1 Rocket - Visible Passes

Search period start: 26 October 2014 00:00
Search period end: 04 November 2014 23:00
Orbit: 756 x 759 km, 98.7° (Epoch: 25 October)

Date Brightness Start Highest point End Pass type
(mag) Time Alt. Az. Time Alt. Az. Time Alt. Az.
26 Oct 3.7 07:13:54 10° SE 07:18:27 32° E 07:22:56 10° NNE visible
26 Oct 5.1 08:52:57 10° SSW 08:57:02 25° WSW 09:01:05 10° WNW visible
27 Oct 3.5 08:13:12 10° S 08:18:13 61° WSW 08:23:10 10° NNW visible
28 Oct 3.1 07:34:11 10° SSE 07:39:10 53° E 07:44:04 10° N visible
28 Oct 5.8 09:14:27 10° SSW 09:17:27 16° WSW 09:20:27 10° W visible
29 Oct 4.2 06:56:06 10° SE 06:59:54 21° E 07:03:38 10° NE visible
29 Oct 4.4 08:34:05 10° S 08:38:45 38° WSW 08:43:22 10° NW visible
30 Oct 2.9 07:54:42 10° SSE 07:59:49 86° ENE 08:04:51 10° NNW visible
31 Oct 3.6 07:16:04 10° SSE 07:20:39 34° E 07:25:11 10° NNE visible
31 Oct 5.2 08:55:12 10° SSW 08:59:13 24° WSW 09:03:12 10° WNW visible
01 Nov 3.6 08:15:24 10° S 08:20:24 59° WSW 08:25:20 10° NNW visible
02 Nov 3.1 06:36:21 10° SSE 06:41:21 55° E 06:46:16 10° N visible
02 Nov 5.8 08:16:43 10° SSW 08:19:37 16° WSW 08:22:31 10° W visible
03 Nov 4.5 07:36:17 10° S 07:40:55 36° WSW 07:45:30 10° NW visible
04 Nov 2.9 06:56:52 10° SSE 07:01:59 89° ENE 07:07:01 10° NNW visible
